Regional Weather Roundup
Issued by NWS Upton, NY

Current Version | Previous Version | Graphics & Text | Print | Product List | Glossary Off
Versions: 1 2 3 4 5 6 7 8 9 10 11 12 13 14 15 16 17 18 19 20 21 22 23 24 25 26 27

000
ASUS41 KOKX 230305
RWROKX

Regional Weather Roundup
National Weather Service New York NY
1100 PM EDT SUN APR 22 2018

Note: "FAIR" indicates few or no clouds below 12,000 feet with no
significant weather and/or obstructions to visibility.

NYZ071-072-176-178-NJZ106-104-230400-
New York City Metro Area

CITY           SKY/WX    TMP DP  RH WIND       PRES   REMARKS
Central Park   FAIR      52  27  38 CALM      30.41R
Bronx Bot Gard   N/A     48  27  43 NE1       30.41S
Bronx Lehman C   N/A     52  28  40 SE2         N/A
LaGuardia Arpt FAIR      52  28  39 S6        30.38R
Queens College   N/A     50  32  50 S5          N/A
Kennedy Intl   FAIR      46  39  76 S10       30.40S
Breezy Point     N/A     45 N/A N/A S6          N/A
Brooklyn Coll    N/A     48  36  61 SE5         N/A
Staten Island    N/A     50  28  43 S7          N/A
Newark/Liberty FAIR      52  30  43 CALM      30.38R
Teterboro      FAIR      52  27  38 CALM      30.38R
$$

NYZ177-179-078>081-230400-
Long Island New York

CITY           SKY/WX    TMP DP  RH WIND       PRES   REMARKS
Jones Beach      N/A     46 N/A N/A SW5         N/A
Wantagh          N/A     46  34  61 SW5         N/A
Hempstead        N/A     48  32  53 S5        30.42S
Matinecock Pt    N/A     50 N/A N/A S3          N/A
Farmingdale    FAIR      46  30  53 W3        30.40R
MacArthur/ISP  FAIR      45  32  60 CALM      30.39S
Stony Brook      N/A     45  30  57 W2          N/A
Shirley        FAIR      44  34  67 W5        30.40S
Mt Sinai Harb    N/A     45 N/A N/A CALM        N/A
Westhampton    FAIR      33  22  63 CALM      30.41S
East Hampton   FAIR      38  25  59 CALM      30.39S
Southold         N/A     41  32  70 E2          N/A
Montauk          N/A     48  30  49 W5        30.40S
$$

NYZ052-065-067-230400-
Hudson Valley

CITY           SKY/WX    TMP DP  RH WIND       PRES   REMARKS
White Plains   FAIR      45  30  55 CALM      30.38S
Larchmont Harb   N/A     48 N/A N/A E2          N/A
Croton On Huds   N/A     46 N/A N/A CALM        N/A
Somers           N/A     46  27  46 E2          N/A
Brewster         N/A     45  25  45 CALM        N/A
Newburgh       CLEAR     48  21  34 CALM      30.39R
Montgomery     FAIR      42  28  57 CALM      30.37S
Otisville        N/A     43  28  56 NW1         N/A
Warwick          N/A     41  32  70 SE2         N/A
Suffern          N/A     46  25  42 E1          N/A
Poughkeepsie   FAIR      42  23  46 E3        30.37S
Albany         FAIR      46  18  32 N7        30.40R
$$

NJZ001-105-106-008-010-013-015-019>022-104-230400-
New Jersey

CITY           SKY/WX    TMP DP  RH WIND       PRES   REMARKS
Newark/Liberty FAIR      52  30  43 CALM      30.38R
Teterboro      FAIR      52  27  38 CALM      30.38R
Caldwell       FAIR      47  32  56 E3        30.39R
Somerville     FAIR      48  28  46 CALM      30.36R
Linden         FAIR      51  25  35 CALM      30.38S
Perth Amboy      N/A     50 N/A N/A S3          N/A
Sussex         FAIR      43  31  62 CALM      30.39R
Andover          N/A     44  32  62 CALM      30.38R
Trenton        FAIR      50  30  46 S3        30.38R
Millville      FAIR      40  35  83 CALM      30.40S
Atlantic City  FAIR      47  38  71 S6        30.40S
Wrightstown    NOT AVBL
Toms River     FAIR      44  31  60 SW6       30.39F
Belmar         FAIR      47  25  42 S8        30.39S
$$

PAZ047>061-062-071-230400-
Eastern Pennsylvania

CITY           SKY/WX    TMP DP  RH WIND       PRES   REMARKS
Philadelphia   FAIR      50  34  54 S6        30.40S
Allentown      FAIR      57  24  28 W5        30.37R
Scranton       FAIR      48  21  34 E6        30.38R
$$

CTZ002-004>006-009-010-012-RIZ004-006-007-MAZ004-011-015-230400-
Southern New England

 In CT

CITY           SKY/WX    TMP DP  RH WIND       PRES   REMARKS
Bradley Intl   FAIR      43  21  41 CALM      30.38R
Hartford       FAIR      46  28  49 S7        30.38R
Danbury        FAIR      42  29  59 CALM      30.39S
Wtrbury/Oxford FAIR      47  25  42 SW3       30.39R
Norwalk Harbor   N/A     48 N/A N/A W5          N/A
Bridgeport     FAIR      47  35  63 W5        30.39S
Meriden        FAIR      44  30  57 CALM      30.39R
New Haven      FAIR      48  37  65 CALM      30.39S
Chester        FAIR      48  27  43 W7        30.38
Groton         FAIR      47  30  51 W6        30.38S
Willimantic    FAIR      42  26  53 CALM      30.39R

 In RI

CITY           SKY/WX    TMP DP  RH WIND       PRES   REMARKS
Providence     FAIR      47  36  65 N3        30.38R
Block Island   FAIR      45  32  60 W12       30.39S
Westerly       FAIR      48  29  47 W5        30.39S

In MA

CITY           SKY/WX    TMP DP  RH WIND       PRES   REMARKS
Boston         FAIR      49  33  54 N3        30.38R
Worcester      FAIR      49  13  23 N7        30.37R
Westfield      FAIR      40  24  53 CALM      30.38R
Provincetown   FAIR      43  33  68 SW9       30.38S
Nantucket      FAIR      41  39  93 SW6       30.39S
$$

ANZ330-335-338-340-345-350-353-355-230400-
Coastal Marine Observations


STATION/POSITION TIME  SKY/WX   TEMP    WIND        PRES    VSBY  WAVE
                                AIR SEA DIR/SP/G                  HT/PER
                 (UTC)          (F)     (DEG/KT/KT) (MB)    (MI)  (FT/S)
NY Harb Entrance 0250            46 45  180/ 10/ 12 1029.3          2/ 3
20 S Fire Island 0250            46 44  220/ 12/ 14 1029.2          1/ 3
23 SSW Montauk P 0250            45 43  250/  8/  8 1029.4          2/ 5
15 E Barnegat Li 0230               45                N/A           2/17
Hudson Canyon    0250            47 45  230/  8/ 10 1029.3          1/12
Kings Point      0242            50 47  220/  4/  5 1030.1
Execution Rocks  NOT AVBL
Western LI Sound NOT AVBL
Central LI Sound 0245            47     250/  8/ 10   N/A           1
Robbins Reef     0242            51     170/  6/  8 1029.3
$$


>>>>>>>>>>>>>>>>>>>>>>>>>>>> KEY <<<<<<<<<<<<<<<<<<<<<<<<<<<
>                                                          <
>     SKY/WX - Sky Condition/Present Weather               <
>     TMP    - Temperature in Fahrenheit                   <
>     DP     - Dew Point in Fahrenheit                     <
>     RH     - Relative Humidity in Percent                <
>     WIND   - Direction (from) and Speed in MPH           <
>     PRES   - Mean Sea Level Pressure (inches of Hg)      <
>     WCI    - Wind Chill Index                            <
>     VSB    - Visibility in Miles                         <
>     HX     - Heat Index                                  <
>     TC     - Temperature in Celsius                      <
>     VRB    - Varibale Wind Direction                     <
>                                                          <
>>>>>>>>>>>>>>>>>>>>>>>>>>>> KEY <<<<<<<<<<<<<<<<<<<<<<<<<<<




USA.gov is the U.S. government's official web portal to all federal, state and local government web resources and services.